Location: Huesca
(42.1318°N, 0.4078°W)
Time: 23:07:59
(UTC+02:00)

TIGRISAT - Visible Passes

Search period start: 24 April 2024 00:00
Search period end: 04 May 2024 00:00
Orbit: 594 x 674 km, 97.7° (Epoch: 23 April)

Date Brightness Start Highest point End Pass type
(mag) Time Alt. Az. Time Alt. Az. Time Alt. Az.
24 Apr ? 05:32:01 10° SE 05:36:11 44° ENE 05:40:18 10° N visible
25 Apr ? 05:53:20 10° SSE 05:57:43 78° ENE 06:02:01 10° N visible
26 Apr ? 04:41:15 10° E 04:43:21 13° ENE 04:45:25 10° NE visible
26 Apr ? 06:14:58 10° S 06:19:17 61° W 06:23:32 10° NNW visible
27 Apr ? 05:01:23 10° ESE 05:04:41 21° ENE 05:07:56 10° NNE visible
28 Apr ? 05:22:08 10° SE 05:26:03 35° ENE 05:29:57 10° N visible
29 Apr ? 05:43:14 10° SSE 05:47:30 60° ENE 05:51:42 10° N visible
30 Apr ? 04:32:26 10° ENE 04:33:11 10° ENE 04:33:55 10° NE visible
30 Apr ? 06:04:39 10° S 06:08:58 78° WSW 06:13:15 10° NNW visible
01 May ? 04:51:38 10° ESE 04:54:25 17° ENE 04:57:11 10° NNE visible
01 May ? 06:26:23 10° S 06:30:30 44° W 06:34:35 10° NNW visible
02 May ? 05:12:06 10° SE 05:15:44 27° ENE 05:19:19 10° N visible
03 May ? 05:32:59 10° SE 05:37:04 46° ENE 05:41:07 10° N visible
